#timestamp,LO_Frequency,Hit,StdDev 
1588626195.8,286047021.7,P
1588626215.7,286047021.0,P
1588626235.5,286047019.4,P
1588626255.4,286047019.1,Y
1588626275.2,286047000.3,P
1588626295.0,286047002.8,N
1588626295.9,286047002.8,N
1588626315.8,286047000.5,N
1588626335.6,286046999.7,N
1588626355.4,286047000.2,N
1588626375.3,286047001.5,N
1588626395.1,286047002.4,N
1588626415.9,286047004.4,N
1588626435.7,286047004.1,N
1588626455.5,286047001.2,N
1588626475.4,286046999.5,N
1588626495.2,286046998.5,N
1588626515.0,286046998.7,N
1588626516.0,286046998.7,N
1588626535.8,286047000.5,N
1588626555.6,286047002.7,N
1588626575.5,286047004.2,N
1588626595.3,286047001.3,N
1588626615.1,286047004.4,N
1588626635.9,286047005.3,N
1588626655.7,286047006.7,N
1588626675.6,286047006.4,N
1588626695.4,286047004.5,N
1588626715.2,286047005.1,N
1588626735.1,286047009.1,N
1588626736.0,286047009.1,N
1588626755.8,286047009.2,N
1588626775.6,286047009.0,N
1588626795.5,286047008.4,N
1588626815.3,286047008.0,N
1588626835.2,286047006.4,N
1588626855.9,286047007.6,N
1588626875.7,286047004.8,N
1588626895.6,286047003.0,N
1588626915.4,286047003.1,N
1588626935.2,286047005.4,N
1588626955.1,286047004.7,N
1588626956.0,286047004.7,N
1588626975.8,286047005.2,N
1588626995.7,286047004.2,N
1588627015.5,286047001.7,N
1588627035.3,286047002.5,N
1588627055.2,286047002.8,N
1588627075.0,286047001.7,N
1588627075.9,286047001.7,N
1588627095.8,286047003.9,N
1588627115.6,286047005.9,N
1588627135.4,286047005.3,N
1588627155.3,286047005.4,N
1588627175.1,286047004.7,N
1588627195.9,286047006.2,N
1588627215.7,286047005.0,N
1588627235.5,286047007.3,Y
1588627255.4,286047002.6,P
1588627275.2,286047001.7,N
1588627295.0,286047002.2,N
1588627295.9,286047002.2,N
1588627315.8,286047001.7,N
1588627335.6,286047003.2,N
1588627355.5,286047001.3,N
1588627375.3,286047001.3,N
1588627395.1,286047002.6,N
1588627415.9,286046999.8,N
1588627435.7,286047000.4,N
1588627455.5,286046998.3,N
1588627475.4,286047000.6,N
1588627495.2,286046999.9,N
1588627515.1,286047000.5,N
1588627516.0,286047000.5,N
1588627535.8,286047002.3,N
1588627555.6,286047001.6,N
1588627575.5,286047000.4,N
1588627595.3,286047000.6,N
1588627615.1,286047000.7,N
1588627635.9,286046997.2,N
1588627655.7,286046993.3,Y
1588627675.6,286046993.5,P
1588627695.4,286046993.6,N
1588627715.2,286046994.6,N
1588627735.1,286046992.2,N
1588627736.0,286046992.2,N
1588627755.8,286046991.9,N
1588627775.7,286046992.5,N
1588627795.5,286046993.9,N
1588627815.3,286046997.0,N
1588627835.2,286047000.7,N
1588627855.0,286047002.2,N
1588627855.9,286047002.2,N
1588627875.7,286047002.5,N
1588627895.6,286047001.4,N
1588627915.4,286047004.4,N
1588627935.3,286047004.2,N
1588627955.1,286047001.9,N
1588627956.0,286047001.9,N
1588627975.8,286047002.2,N
1588627995.7,286047002.1,N
1588628015.5,286047000.5,N
1588628035.3,286047001.2,N
1588628055.2,286046998.3,N
1588628075.0,286047000.8,N
1588628075.9,286047000.8,N
1588628095.8,286047000.2,N
1588628115.6,286046999.4,N
1588628135.4,286046996.6,N
1588628155.3,286046998.9,N
1588628175.1,286047001.1,N
1588628195.9,286047000.5,N
1588628215.7,286046996.6,N
1588628235.5,286046998.8,N
1588628255.4,286046999.4,N
1588628275.2,286046996.6,N
1588628295.0,286046997.6,N
1588628295.9,286046997.6,N
1588628315.8,286046995.5,N
1588628335.6,286046997.3,N
1588628355.5,286046998.4,N
1588628375.3,286046998.8,N
1588628395.1,286046999.9,N
1588628415.9,286047002.7,N
1588628435.7,286047002.6,N
1588628455.5,286047003.2,N
1588628475.4,286047005.5,N
1588628495.2,286047003.4,N
1588628515.1,286047005.2,N
1588628516.0,286047005.2,N
1588628535.8,286047004.6,N
1588628555.6,286047004.9,N
1588628575.5,286047006.8,N
1588628595.3,286047007.5,N
1588628615.1,286047006.2,N
1588628635.9,286047006.9,N
1588628655.7,286047007.2,N
1588628675.6,286047004.5,N
1588628695.4,286047007.0,N
1588628715.2,286047006.6,N
1588628735.1,286047007.3,N
1588628736.0,286047007.3,N
1588628755.8,286047009.0,N
1588628775.6,286047008.5,N
1588628795.5,286047008.8,N
1588628815.3,286047006.8,N
1588628835.2,286047006.1,N
1588628855.9,286047008.3,N
1588628875.7,286047008.4,N
1588628895.6,286047008.5,N
1588628915